Location: *
(51.4660°N, 0.3360°W)
Time: 15:18:29
(UTC+00:00)

USA 186 - Pass Details

Date: 19 September 2019
Orbit: 261 x 450 km, 96.9° (Epoch: 07 October)

Event Time Altitude Azimuth Distance (km) Brightness Sun altitude
Exits shadow 19:44:21 - 180° (S) 1,795 4.7 -15.5°
Reaches altitude 10° 19:44:53 10° 182° (S) 1,576 4.4 -15.6°
Maximum altitude 19:48:13 53° 261° (W) 568 2.7 -16.1°
Drops below altitude 10° 19:51:37 10° 339° (NNW) 1,599 5.3 -16.5°
Sets 19:53:42 0° 344° (NNW) 2,470 6.3 -16.8°
